Time,TemperatureF,DewpointF,PressureIn,WindDirection,WindDirectionDegrees,WindSpeedMPH,WindSpeedGustMPH,Humidity,HourlyPrecipIn,Conditions,Clouds,dailyrainin,SoftwareType,DateUTC
2014-01-02 00:01:00,42.2,39.8,28.89,WSW,256,5.0,14.0,91,0.00,,,0.00,WeatherCatV1.24B11,2014-01-02 00:01:00,
2014-01-02 00:06:00,42.8,40.4,28.89,West,259,11.0,11.0,91,0.00,,,0.00,WeatherCatV1.24B11,2014-01-02 00:06:00,
2014-01-02 00:11:00,43.3,40.8,28.89,WSW,248,8.0,11.0,91,0.00,,,0.00,WeatherCatV1.24B11,2014-01-02 00:11:00,
2014-01-02 00:16:00,43.7,41.0,28.89,West,273,4.0,5.0,90,0.00,,,0.00,WeatherCatV1.24B11,2014-01-02 00:16:00,
2014-01-02 00:21:00,43.7,41.0,28.89,WSW,257,4.0,9.0,90,0.00,,,0.00,WeatherCatV1.24B11,2014-01-02 00:21:00,
2014-01-02 00:26:00,43.5,40.5,28.89,West,274,3.0,6.0,89,0.00,,,0.00,WeatherCatV1.24B11,2014-01-02 00:26:00,
2014-01-02 00:31:00,43.4,40.4,28.90,WSW,239,6.0,7.0,89,0.00,,,0.00,WeatherCatV1.24B11,2014-01-02 00:31:00,
2014-01-02 00:36:00,43.3,40.3,28.90,SW,231,3.0,5.0,89,0.00,,,0.00,WeatherCatV1.24B11,2014-01-02 00:36:00,
2014-01-02 00:41:00,43.1,40.1,28.90,SW,231,3.0,6.0,89,0.00,,,0.00,WeatherCatV1.24B11,2014-01-02 00:41:00,
2014-01-02 00:46:00,43.1,40.1,28.90,SW,233,3.0,6.0,89,0.00,,,0.00,WeatherCatV1.24B11,2014-01-02 00:46:00,
2014-01-02 00:51:00,43.2,40.2,28.90,SW,229,4.0,8.0,89,0.00,,,0.00,WeatherCatV1.24B11,2014-01-02 00:51:00,
2014-01-02 00:56:00,43.0,40.0,28.91,WSW,239,3.0,4.0,89,0.00,,,0.00,WeatherCatV1.24B11,2014-01-02 00:56:00,
2014-01-02 01:01:00,42.9,40.2,28.91,SW,233,1.0,2.0,90,0.00,,,0.00,WeatherCatV1.24B11,2014-01-02 01:01:00,
2014-01-02 01:06:00,42.7,40.0,28.91,SW,219,1.0,1.0,90,0.00,,,0.00,WeatherCatV1.24B11,2014-01-02 01:06:00,
2014-01-02 01:11:00,42.5,39.8,28.91,SW,219,0.0,1.0,90,0.00,,,0.00,WeatherCatV1.24B11,2014-01-02 01:11:00,
2014-01-02 01:16:00,42.4,40.0,28.91,SW,224,0.0,0.0,91,0.00,,,0.00,WeatherCatV1.24B11,2014-01-02 01:16:00,
2014-01-02 01:21:00,42.3,40.1,28.91,WSW,245,1.0,1.0,92,0.00,,,0.00,WeatherCatV1.24B11,2014-01-02 01:21:00,
2014-01-02 01:26:00,42.3,40.1,28.91,South,179,1.0,1.0,92,0.00,,,0.00,WeatherCatV1.24B11,2014-01-02 01:26:00,
2014-01-02 01:31:00,42.5,40.6,28.91,SSW,194,1.0,4.0,93,0.00,,,0.00,WeatherCatV1.24B11,2014-01-02 01:31:00,
2014-01-02 01:36:00,42.8,40.9,28.91,SW,231,1.0,3.0,93,0.00,,,0.00,WeatherCatV1.24B11,2014-01-02 01:36:00,
2014-01-02 01:41:00,42.8,40.6,28.91,SW,224,1.0,3.0,92,0.00,,,0.00,WeatherCatV1.24B11,2014-01-02 01:41:00,
2014-01-02 01:46:00,43.0,40.8,28.91,SW,221,6.0,8.0,92,0.00,,,0.00,WeatherCatV1.24B11,2014-01-02 01:46:00,
2014-01-02 01:51:00,43.3,41.1,28.91,SW,214,4.0,7.0,92,0.00,,,0.00,WeatherCatV1.24B11,2014-01-02 01:51:00,
2014-01-02 01:56:00,43.6,41.2,28.91,WSW,252,4.0,9.0,91,0.00,,,0.00,WeatherCatV1.24B11,2014-01-02 01:56:00,
2014-01-02 02:01:00,43.9,41.4,28.91,SW,233,7.0,7.0,91,0.00,,,0.00,WeatherCatV1.24B11,2014-01-02 02:01:00,
2014-01-02 02:06:00,44.0,41.5,28.91,West,269,4.0,9.0,91,0.00,,,0.00,WeatherCatV1.24B11,2014-01-02 02:06:00,
2014-01-02 02:11:00,44.1,41.6,28.91,WSW,243,5.0,10.0,91,0.00,,,0.00,WeatherCatV1.24B11,2014-01-02 02:11:00,
2014-01-02 02:16:00,44.3,41.8,28.91,WSW,240,8.0,9.0,91,0.00,,,0.00,WeatherCatV1.24B11,2014-01-02 02:16:00,
2014-01-02 02:21:00,44.5,42.3,28.92,WSW,246,12.0,14.0,92,0.00,,,0.00,WeatherCatV1.24B11,2014-01-02 02:21:00,
2014-01-02 02:26:00,44.8,42.0,28.92,SW,236,14.0,15.0,90,0.00,,,0.00,WeatherCatV1.24B11,2014-01-02 02:26:00,
2014-01-02 02:31:00,44.7,42.0,28.92,SW,221,7.0,16.0,90,0.00,,,0.00,WeatherCatV1.24B11,2014-01-02 02:31:00,
2014-01-02 02:36:00,44.4,41.4,28.92,WSW,252,6.0,12.0,89,0.00,,,0.00,WeatherCatV1.24B11,2014-01-02 02:36:00,
2014-01-02 02:41:00,44.3,41.3,28.92,WSW,255,4.0,13.0,89,0.00,,,0.00,WeatherCatV1.24B11,2014-01-02 02:41:00,
2014-01-02 02:46:00,44.3,41.0,28.92,SW,228,11.0,12.0,88,0.00,,,0.00,WeatherCatV1.24B11,2014-01-02 02:46:00,
2014-01-02 02:51:00,44.2,41.2,28.93,SW,233,7.0,10.0,89,0.00,,,0.00,WeatherCatV1.24B11,2014-01-02 02:51:00,
2014-01-02 02:56:00,44.2,41.2,28.93,WSW,242,9.0,11.0,89,0.00,,,0.00,WeatherCatV1.24B11,2014-01-02 02:56:00,
2014-01-02 03:01:00,44.3,41.5,28.93,WSW,246,11.0,15.0,90,0.00,,,0.00,WeatherCatV1.24B11,2014-01-02 03:01:00,
2014-01-02 03:06:00,44.3,41.5,28.93,SW,232,9.0,12.0,90,0.00,,,0.00,WeatherCatV1.24B11,2014-01-02 03:06:00,
2014-01-02 03:11:00,44.3,41.8,28.93,SW,233,7.0,10.0,91,0.00,,,0.00,WeatherCatV1.24B11,2014-01-02 03:11:00,
2014-01-02 03:16:00,44.3,41.8,28.93,WSW,242,7.0,10.0,91,0.00,,,0.00,WeatherCatV1.24B11,2014-01-02 03:16:00,
2014-01-02 03:21:00,45.3,43.4,28.94,WSW,238,4.0,4.0,93,0.00,,,0.00,WeatherCatV1.24B11,2014-01-02 03:21:00,
2014-01-02 03:26:00,45.3,43.4,28.94,WSW,238,4.0,4.0,93,0.00,,,0.00,WeatherCatV1.24B11,2014-01-02 03:26:00,
2014-01-02 03:31:00,-999.0,-99.9,28.94,North,-999,-999.0,0.0,-999,0.00,,,0.00,WeatherCatV1.24B11,2014-01-02 03:31:00,
2014-01-02 03:36:00,-999.0,-99.9,28.94,North,-999,-999.0,0.0,-999,0.00,,,0.00,WeatherCatV1.24B11,2014-01-02 03:36:00,
2014-01-02 03:41:00,-999.0,-99.9,28.94,North,-999,-999.0,0.0,-999,0.00,,,0.00,WeatherCatV1.24B11,2014-01-02 03:41:00,
2014-01-02 03:46:00,-999.0,-99.9,28.94,North,-999,-999.0,0.0,-999,0.00,,,0.00,WeatherCatV1.24B11,2014-01-02 03:46:00,
2014-01-02 03:51:00,-999.0,-99.9,28.94,North,-999,-999.0,0.0,-999,0.00,,,0.00,WeatherCatV1.24B11,2014-01-02 03:51:00,
2014-01-02 03:56:00,-999.0,-99.9,28.94,North,-999,-999.0,0.0,-999,0.00,,,0.00,WeatherCatV1.24B11,2014-01-02 03:56:00,
2014-01-02 04:01:00,-999.0,-99.9,28.94,North,-999,-999.0,0.0,-999,0.00,,,0.00,WeatherCatV1.24B11,2014-01-02 04:01:00,
2014-01-02 04:06:00,-999.0,-99.9,28.94,North,-999,-999.0,0.0,-999,0.00,,,0.00,WeatherCatV1.24B11,2014-01-02 04:06:00,
2014-01-02 04:11:00,-999.0,-99.9,28.93,North,-999,-999.0,0.0,-999,0.00,,,0.00,WeatherCatV1.24B11,2014-01-02 04:11:00,
2014-01-02 04:16:00,-999.0,-99.9,28.94,North,-999,-999.0,0.0,-999,0.00,,,0.00,WeatherCatV1.24B11,2014-01-02 04:16:00,
2014-01-02 04:21:00,-999.0,-99.9,28.94,North,-999,-999.0,0.0,-999,0.00,,,0.00,WeatherCatV1.24B11,2014-01-02 04:21:00,
2014-01-02 04:26:00,-999.0,-99.9,28.95,North,-999,-999.0,0.0,-999,0.00,,,0.00,WeatherCatV1.24B11,2014-01-02 04:26:00,
2014-01-02 04:31:00,-999.0,-99.9,28.95,North,-999,-999.0,0.0,-999,0.00,,,0.00,WeatherCatV1.24B11,2014-01-02 04:31:00,
2014-01-02 04:36:00,-999.0,-99.9,28.95,North,-999,-999.0,0.0,-999,0.00,,,0.00,WeatherCatV1.24B11,2014-01-02 04:36:00,
2014-01-02 04:41:00,-999.0,-99.9,28.95,North,-999,-999.0,0.0,-999,0.00,,,0.00,WeatherCatV1.24B11,2014-01-02 04:41:00,
2014-01-02 04:46:00,-999.0,-99.9,28.95,North,-999,-999.0,0.0,-999,0.00,,,0.00,WeatherCatV1.24B11,2014-01-02 04:46:00,
2014-01-02 04:51:00,-999.0,-99.9,28.94,North,-999,-999.0,0.0,-999,0.00,,,0.00,WeatherCatV1.24B11,2014-01-02 04:51:00,
2014-01-02 04:56:00,-999.0,-99.9,28.94,North,-999,-999.0,0.0,-999,0.00,,,0.00,WeatherCatV1.24B11,2014-01-02 04:56:00,
2014-01-02 05:01:00,-999.0,-99.9,28.94,North,-999,-999.0,0.0,-999,0.00,,,0.00,WeatherCatV1.24B11,2014-01-02 05:01:00,
2014-01-02 05:02:00,-999.0,-99.9,28.94,North,-999,-999.0,0.0,-999,0.00,,,0.00,WeatherCatV1.24B11,2014-01-02 05:02:00,
2014-01-02 05:07:00,-999.0,-99.9,28.94,North,-999,-999.0,0.0,-999,0.00,,,0.00,WeatherCatV1.24B11,2014-01-02 05:07:00,
2014-01-02 05:12:00,-999.0,-99.9,28.94,North,-999,-999.0,0.0,-999,0.00,,,0.00,WeatherCatV1.24B11,2014-01-02 05:12:00,
2014-01-02 05:17:00,-999.0,-99.9,28.94,North,-999,-999.0,0.0,-999,0.00,,,0.00,WeatherCatV1.24B11,2014-01-02 05:17:00,
2014-01-02 05:22:00,-999.0,-99.9,28.94,North,-999,-999.0,0.0,-999,0.00,,,0.00,WeatherCatV1.24B11,2014-01-02 05:22:00,
2014-01-02 05:27:00,-999.0,-99.9,28.94,North,-999,-999.0,0.0,-999,0.00,,,0.00,WeatherCatV1.24B11,2014-01-02 05:27:00,
2014-01-02 05:31:00,-999.0,-99.9,28.94,North,-999,-999.0,0.0,-999,0.00,,,0.00,WeatherCatV1.24B11,2014-01-02 05:31:00,
2014-01-02 05:36:00,-999.0,-99.9,28.94,North,-999,-999.0,0.0,-999,0.00,,,0.00,WeatherCatV1.24B11,2014-01-02 05:36:00,
2014-01-02 05:41:00,-999.0,-99.9,28.94,North,-999,-999.0,0.0,-999,0.00,,,0.00,WeatherCatV1.24B11,2014-01-02 05:41:00,
2014-01-02 05:46:00,-999.0,-99.9,28.94,North,-999,-999.0,0.0,-999,0.00,,,0.00,WeatherCatV1.24B11,2014-01-02 05:46:00,
2014-01-02 05:51:00,-999.0,-99.9,28.94,North,-999,-999.0,0.0,-999,0.00,,,0.00,WeatherCatV1.24B11,2014-01-02 05:51:00,
2014-01-02 05:56:00,-999.0,-99.9,28.94,North,-999,-999.0,0.0,-999,0.00,,,0.00,WeatherCatV1.24B11,2014-01-02 05:56:00,
2014-01-02 06:01:00,-999.0,-99.9,28.94,North,-999,-999.0,0.0,-999,0.00,,,0.00,WeatherCatV1.24B11,2014-01-02 06:01:00,
2014-01-02 06:06:00,-999.0,-99.9,28.94,North,-999,-999.0,0.0,-999,0.00,,,0.00,WeatherCatV1.24B11,2014-01-02 06:06:00,
2014-01-02 06:11:00,-999.0,-99.9,28.94,North,-999,-999.0,0.0,-999,0.00,,,0.00,WeatherCatV1.24B11,2014-01-02 06:11:00,
2014-01-02 06:16:00,-999.0,-99.9,28.94,North,-999,-999.0,0.0,-999,0.00,,,0.00,WeatherCatV1.24B11,2014-01-02 06:16:00,
2014-01-02 06:21:00,-999.0,-99.9,28.94,North,-999,-999.0,0.0,-999,0.00,,,0.00,WeatherCatV1.24B11,2014-01-02 06:21:00,
2014-01-02 06:26:00,-999.0,-99.9,28.94,North,-999,-999.0,0.0,-999,0.00,,,0.00,WeatherCatV1.24B11,2014-01-02 06:26:00,
2014-01-02 06:32:00,-999.0,-99.9,28.94,North,-999,-999.0,0.0,-999,0.00,,,0.00,WeatherCatV1.24B11,2014-01-02 06:32:00,
2014-01-02 06:37:00,-999.0,-99.9,28.94,North,-999,-999.0,0.0,-999,0.00,,,0.00,WeatherCatV1.24B11,2014-01-02 06:37:00,
2014-01-02 06:42:00,-999.0,-99.9,28.95,North,-999,-999.0,0.0,-999,0.00,,,0.00,WeatherCatV1.24B11,2014-01-02 06:42:00,
2014-01-02 06:46:00,-999.0,-99.9,28.94,North,-999,-999.0,0.0,-999,0.00,,,0.00,WeatherCatV1.24B11,2014-01-02 06:46:00,
2014-01-02 06:51:00,-999.0,-99.9,28.95,North,-999,-999.0,0.0,-999,0.00,,,0.00,WeatherCatV1.24B11,2014-01-02 06:51:00,
2014-01-02 06:56:00,-999.0,-99.9,28.95,North,-999,-999.0,0.0,-999,0.00,,,0.00,WeatherCatV1.24B11,2014-01-02 06:56:00,
2014-01-02 07:01:00,-999.0,-99.9,28.94,North,-999,-999.0,0.0,-999,0.00,,,0.00,WeatherCatV1.24B11,2014-01-02 07:01:00,
2014-01-02 07:06:00,-999.0,-99.9,28.94,North,-999,-999.0,0.0,-999,0.00,,,0.00,WeatherCatV1.24B11,2014-01-02 07:06:00,
2014-01-02 07:07:00,-999.0,-99.9,28.95,North,-999,-999.0,0.0,-999,0.00,,,0.00,WeatherCatV1.24B11,2014-01-02 07:07:00,
2014-01-02 07:12:00,-999.0,-99.9,28.94,North,-999,-999.0,0.0,-999,0.00,,,0.00,WeatherCatV1.24B11,2014-01-02 07:12:00,
2014-01-02 07:17:00,-999.0,-99.9,28.95,North,-999,-999.0,0.0,-999,0.00,,,0.00,WeatherCatV1.24B11,2014-01-02 07:17:00,
2014-01-02 07:22:00,-999.0,-99.9,28.95,North,-999,-999.0,0.0,-999,0.00,,,0.00,WeatherCatV1.24B11,2014-01-02 07:22:00,
2014-01-02 07:27:00,-999.0,-99.9,28.95,North,-999,-999.0,0.0,-999,0.00,,,0.00,WeatherCatV1.24B11,2014-01-02 07:27:00,
2014-01-02 07:32:00,-999.0,-99.9,28.96,North,-999,-999.0,0.0,-999,0.00,,,0.00,WeatherCatV1.24B11,2014-01-02 07:32:00,
2014-01-02 07:37:00,-999.0,-99.9,28.95,North,-999,-999.0,0.0,-999,0.00,,,0.00,WeatherCatV1.24B11,2014-01-02 07:37:00,
2014-01-02 07:42:00,-999.0,-99.9,28.96,North,-999,-999.0,0.0,-999,0.00,,,0.00,WeatherCatV1.24B11,2014-01-02 07:42:00,
2014-01-02 07:47:00,-999.0,-99.9,28.95,North,-999,-999.0,0.0,-999,0.00,,,0.00,WeatherCatV1.24B11,2014-01-02 07:47:00,
2014-01-02 07:52:00,-999.0,-99.9,28.95,North,-999,-999.0,0.0,-999,0.00,,,0.00,WeatherCatV1.24B11,2014-01-02 07:52:00,
2014-01-02 07:57:00,-999.0,-99.9,28.95,North,-999,-999.0,0.0,-999,0.00,,,0.00,WeatherCatV1.24B11,2014-01-02 07:57:00,
2014-01-02 08:02:00,-999.0,-99.9,28.96,North,-999,-999.0,0.0,-999,0.00,,,0.00,WeatherCatV1.24B11,2014-01-02 08:02:00,
2014-01-02 08:07:00,-999.0,-99.9,28.96,North,-999,-999.0,0.0,-999,0.00,,,0.00,WeatherCatV1.24B11,2014-01-02 08:07:00,
2014-01-02 08:12:00,-999.0,-99.9,28.96,North,-999,-999.0,0.0,-999,0.00,,,0.00,WeatherCatV1.24B11,2014-01-02 08:12:00,
2014-01-02 08:17:00,-999.0,-99.9,28.96,North,-999,-999.0,0.0,-999,0.00,,,0.00,WeatherCatV1.24B11,2014-01-02 08:17:00,
2014-01-02 08:22:00,-999.0,-99.9,28.96,North,-999,-999.0,0.0,-999,0.00,,,0.00,WeatherCatV1.24B11,2014-01-02 08:22:00,
2014-01-02 08:27:00,-999.0,-99.9,28.96,North,-999,-999.0,0.0,-999,0.00,,,0.00,WeatherCatV1.24B11,2014-01-02 08:27:00,
2014-01-02 08:32:00,-999.0,-99.9,28.97,North,-999,-999.0,0.0,-999,0.00,,,0.00,WeatherCatV1.24B11,2014-01-02 08:32:00,
2014-01-02 08:37:00,-999.0,-99.9,28.97,North,-999,-999.0,0.0,-999,0.00,,,0.00,WeatherCatV1.24B11,2014-01-02 08:37:00,
2014-01-02 08:42:00,-999.0,-99.9,28.97,North,-999,-999.0,0.0,-999,0.00,,,0.00,WeatherCatV1.24B11,2014-01-02 08:42:00,
2014-01-02 08:47:00,-999.0,-99.9,28.97,North,-999,-999.0,0.0,-999,0.00,,,0.00,WeatherCatV1.24B11,2014-01-02 08:47:00,
2014-01-02 08:52:00,-999.0,-99.9,28.98,North,-999,-999.0,0.0,-999,0.00,,,0.00,WeatherCatV1.24B11,2014-01-02 08:52:00,
2014-01-02 08:57:00,-999.0,-99.9,28.98,North,-999,-999.0,0.0,-999,0.00,,,0.00,WeatherCatV1.24B11,2014-01-02 08:57:00,
2014-01-02 09:02:00,-999.0,-99.9,28.98,North,-999,-999.0,0.0,-999,0.00,,,0.00,WeatherCatV1.24B11,2014-01-02 09:02:00,
2014-01-02 09:07:00,-999.0,-99.9,28.98,North,-999,-999.0,0.0,-999,0.00,,,0.00,WeatherCatV1.24B11,2014-01-02 09:07:00,
2014-01-02 09:12:00,-999.0,-99.9,28.98,North,-999,-999.0,0.0,-999,0.00,,,0.00,WeatherCatV1.24B11,2014-01-02 09:12:00,
2014-01-02 09:17:00,-999.0,-99.9,28.99,North,-999,-999.0,0.0,-999,0.00,,,0.00,WeatherCatV1.24B11,2014-01-02 09:17:00,
2014-01-02 09:22:00,-999.0,-99.9,28.99,North,-999,-999.0,0.0,-999,0.00,,,0.00,WeatherCatV1.24B11,2014-01-02 09:22:00,
2014-01-02 09:27:00,-999.0,-99.9,28.99,North,-999,-999.0,0.0,-999,0.00,,,0.00,WeatherCatV1.24B11,2014-01-02 09:27:00,
2014-01-02 09:32:00,-999.0,-99.9,28.99,North,-999,-999.0,0.0,-999,0.00,,,0.00,WeatherCatV1.24B11,2014-01-02 09:32:00,
2014-01-02 09:37:00,46.0,42.9,28.99,West,263,14.0,16.0,89,0.00,,,0.00,WeatherCatV1.24B11,2014-01-02 09:37:00,
2014-01-02 09:42:00,46.3,42.9,28.99,WSW,242,8.0,16.0,88,0.00,,,0.00,WeatherCatV1.24B11,2014-01-02 09:42:00,
2014-01-02 09:47:00,46.3,43.2,28.99,WSW,255,6.0,14.0,89,0.00,,,0.00,WeatherCatV1.24B11,2014-01-02 09:47:00,
2014-01-02 09:52:00,46.2,43.1,29.00,West,262,8.0,12.0,89,0.00,,,0.00,WeatherCatV1.24B11,2014-01-02 09:52:00,
2014-01-02 09:57:00,46.1,42.8,29.00,WSW,253,9.0,12.0,88,0.00,,,0.00,WeatherCatV1.24B11,2014-01-02 09:57:00,
2014-01-02 10:02:00,45.9,42.5,29.00,SW,222,9.0,17.0,88,0.00,,,0.00,WeatherCatV1.24B11,2014-01-02 10:02:00,
2014-01-02 10:07:00,45.9,42.5,29.00,SSW,193,6.0,9.0,88,0.00,,,0.00,WeatherCatV1.24B11,2014-01-02 10:07:00,
2014-01-02 10:12:00,45.9,42.5,29.01,SW,218,4.0,9.0,88,0.00,,,0.00,WeatherCatV1.24B11,2014-01-02 10:12:00,
2014-01-02 10:17:00,46.0,42.7,29.01,SSW,205,10.0,13.0,88,0.00,,,0.00,WeatherCatV1.24B11,2014-01-02 10:17:00,
2014-01-02 10:22:00,46.3,42.9,29.01,SSE,158,5.0,11.0,88,0.00,,,0.00,WeatherCatV1.24B11,2014-01-02 10:22:00,
2014-01-02 10:27:00,46.5,43.1,29.01,SW,214,9.0,11.0,88,0.00,,,0.00,WeatherCatV1.24B11,2014-01-02 10:27:00,
2014-01-02 10:32:00,46.7,43.3,29.01,SSW,209,5.0,10.0,88,0.00,,,0.00,WeatherCatV1.24B11,2014-01-02 10:32:00,
2014-01-02 10:37:00,46.9,43.8,29.01,SSW,204,6.0,10.0,89,0.00,,,0.00,WeatherCatV1.24B11,2014-01-02 10:37:00,
2014-01-02 10:42:00,47.0,43.9,29.01,SSE,163,5.0,11.0,89,0.00,,,0.00,WeatherCatV1.24B11,2014-01-02 10:42:00,
2014-01-02 10:47:00,46.9,43.8,29.02,SW,236,4.0,7.0,89,0.00,,,0.00,WeatherCatV1.24B11,2014-01-02 10:47:00,
2014-01-02 10:52:00,46.8,43.7,29.02,South,186,5.0,8.0,89,0.00,,,0.00,WeatherCatV1.24B11,2014-01-02 10:52:00,
2014-01-02 10:57:00,46.9,43.5,29.02,SW,215,5.0,12.0,88,0.00,,,0.00,WeatherCatV1.24B11,2014-01-02 10:57:00,
2014-01-02 11:02:00,47.0,43.3,29.01,SSW,211,9.0,12.0,87,0.00,,,0.00,WeatherCatV1.24B11,2014-01-02 11:02:00,
2014-01-02 11:07:00,47.0,43.3,29.01,SW,225,8.0,14.0,87,0.00,,,0.00,WeatherCatV1.24B11,2014-01-02 11:07:00,
2014-01-02 11:12:00,47.1,43.4,29.01,SSW,197,6.0,10.0,87,0.00,,,0.00,WeatherCatV1.24B11,2014-01-02 11:12:00,
2014-01-02 11:17:00,47.2,43.5,29.01,South,187,9.0,11.0,87,0.00,,,0.00,WeatherCatV1.24B11,2014-01-02 11:17:00,
2014-01-02 11:22:00,47.4,43.7,29.01,SW,229,5.0,9.0,87,0.00,,,0.00,WeatherCatV1.24B11,2014-01-02 11:22:00,
2014-01-02 11:27:00,47.5,43.8,29.01,SSW,205,7.0,11.0,87,0.00,,,0.00,WeatherCatV1.24B11,2014-01-02 11:27:00,
2014-01-02 11:32:00,47.5,44.1,29.00,SW,219,7.0,9.0,88,0.00,,,0.00,WeatherCatV1.24B11,2014-01-02 11:32:00,
2014-01-02 11:37:00,47.5,43.8,29.00,SSW,209,5.0,11.0,87,0.00,,,0.00,WeatherCatV1.24B11,2014-01-02 11:37:00,
2014-01-02 11:42:00,47.6,43.9,29.01,SE,141,7.0,10.0,87,0.00,,,0.00,WeatherCatV1.24B11,2014-01-02 11:42:00,
2014-01-02 11:47:00,47.6,43.9,29.00,SW,222,8.0,11.0,87,0.00,,,0.00,WeatherCatV1.24B11,2014-01-02 11:47:00,
2014-01-02 11:52:00,47.8,44.4,29.00,SE,139,8.0,11.0,88,0.00,,,0.00,WeatherCatV1.24B11,2014-01-02 11:52:00,
2014-01-02 11:57:00,47.5,43.8,29.00,South,170,5.0,10.0,87,0.00,,,0.00,WeatherCatV1.24B11,2014-01-02 11:57:00,
2014-01-02 12:02:00,47.0,43.3,29.00,SSE,149,6.0,10.0,87,0.00,,,0.00,WeatherCatV1.24B11,2014-01-02 12:02:00,
2014-01-02 12:07:00,46.4,43.0,29.01,South,169,11.0,11.0,88,0.00,,,0.00,WeatherCatV1.24B11,2014-01-02 12:07:00,
2014-01-02 12:12:00,46.2,43.1,29.00,SSW,212,8.0,11.0,89,0.00,,,0.00,WeatherCatV1.24B11,2014-01-02 12:12:00,
2014-01-02 12:17:00,46.3,43.5,29.00,South,172,6.0,14.0,90,0.00,,,0.00,WeatherCatV1.24B11,2014-01-02 12:17:00,
2014-01-02 12:22:00,46.2,43.4,29.00,SSE,161,8.0,10.0,90,0.00,,,0.00,WeatherCatV1.24B11,2014-01-02 12:22:00,
2014-01-02 12:27:00,46.0,43.5,29.00,SSW,205,8.0,11.0,91,0.00,,,0.01,WeatherCatV1.24B11,2014-01-02 12:27:00,
2014-01-02 12:32:00,45.9,43.7,29.00,South,191,6.0,11.0,92,0.00,,,0.01,WeatherCatV1.24B11,2014-01-02 12:32:00,
2014-01-02 12:37:00,45.8,43.6,29.00,South,170,6.0,9.0,92,0.00,,,0.01,WeatherCatV1.24B11,2014-01-02 12:37:00,
2014-01-02 12:42:00,45.9,44.0,29.00,South,184,4.0,7.0,93,0.00,,,0.01,WeatherCatV1.24B11,2014-01-02 12:42:00,
2014-01-02 12:47:00,46.0,44.1,29.00,SSE,160,5.0,10.0,93,0.00,,,0.01,WeatherCatV1.24B11,2014-01-02 12:47:00,
2014-01-02 12:52:00,46.0,43.8,28.99,SSE,153,5.0,7.0,92,0.00,,,0.01,WeatherCatV1.24B11,2014-01-02 12:52:00,
2014-01-02 12:57:00,46.0,43.8,28.99,SSW,197,7.0,7.0,92,0.00,,,0.01,WeatherCatV1.24B11,2014-01-02 12:57:00,
2014-01-02 13:02:00,46.1,43.9,28.99,South,170,5.0,10.0,92,0.00,,,0.01,WeatherCatV1.24B11,2014-01-02 13:02:00,
2014-01-02 13:07:00,46.2,43.7,28.99,SSE,162,9.0,12.0,91,0.00,,,0.01,WeatherCatV1.24B11,2014-01-02 13:07:00,
2014-01-02 13:12:00,46.5,43.7,28.99,SSE,150,11.0,12.0,90,0.00,,,0.01,WeatherCatV1.24B11,2014-01-02 13:12:00,
2014-01-02 13:17:00,46.7,43.6,28.99,SSE,165,12.0,12.0,89,0.00,,,0.01,WeatherCatV1.24B11,2014-01-02 13:17:00,
2014-01-02 13:22:00,46.7,43.6,28.99,SSW,197,8.0,11.0,89,0.00,,,0.01,WeatherCatV1.24B11,2014-01-02 13:22:00,
2014-01-02 13:27:00,46.5,43.4,28.99,SSE,163,9.0,12.0,89,0.00,,,0.01,WeatherCatV1.24B11,2014-01-02 13:27:00,
2014-01-02 13:32:00,46.5,43.4,28.98,South,187,8.0,12.0,89,0.00,,,0.01,WeatherCatV1.24B11,2014-01-02 13:32:00,
2014-01-02 13:37:00,46.4,43.6,28.98,SSE,155,13.0,13.0,90,0.00,,,0.01,WeatherCatV1.24B11,2014-01-02 13:37:00,
2014-01-02 13:42:00,46.6,43.8,28.97,South,170,6.0,9.0,90,0.00,,,0.01,WeatherCatV1.24B11,2014-01-02 13:42:00,
2014-01-02 13:47:00,46.8,43.7,28.97,SE,143,12.0,12.0,89,0.00,,,0.01,WeatherCatV1.24B11,2014-01-02 13:47:00,
2014-01-02 13:52:00,46.9,43.8,28.96,SE,134,6.0,8.0,89,0.00,,,0.01,WeatherCatV1.24B11,2014-01-02 13:52:00,
2014-01-02 13:57:00,46.8,43.7,28.96,ESE,121,7.0,9.0,89,0.00,,,0.01,WeatherCatV1.24B11,2014-01-02 13:57:00,
2014-01-02 14:02:00,46.5,43.4,28.96,SSE,157,8.0,11.0,89,0.00,,,0.01,WeatherCatV1.24B11,2014-01-02 14:02:00,
2014-01-02 14:07:00,46.3,43.2,28.95,SE,141,6.0,7.0,89,0.00,,,0.01,WeatherCatV1.24B11,2014-01-02 14:07:00,
2014-01-02 14:12:00,46.1,43.0,28.95,SSE,153,4.0,11.0,89,0.00,,,0.01,WeatherCatV1.24B11,2014-01-02 14:12:00,
2014-01-02 14:17:00,46.1,43.0,28.95,SE,133,6.0,9.0,89,0.00,,,0.01,WeatherCatV1.24B11,2014-01-02 14:17:00,
2014-01-02 14:22:00,46.0,42.9,28.95,SE,139,4.0,10.0,89,0.00,,,0.01,WeatherCatV1.24B11,2014-01-02 14:22:00,
2014-01-02 14:27:00,46.0,42.9,28.95,South,174,6.0,11.0,89,0.00,,,0.01,WeatherCatV1.24B11,2014-01-02 14:27:00,
2014-01-02 14:32:00,45.8,43.0,28.95,SSE,165,4.0,11.0,90,0.00,,,0.01,WeatherCatV1.24B11,2014-01-02 14:32:00,
2014-01-02 14:37:00,45.6,42.8,28.94,SE,133,6.0,10.0,90,0.00,,,0.01,WeatherCatV1.24B11,2014-01-02 14:37:00,
2014-01-02 14:42:00,45.7,42.7,28.94,ESE,117,4.0,12.0,89,0.00,,,0.01,WeatherCatV1.24B11,2014-01-02 14:42:00,
2014-01-02 14:47:00,45.8,42.7,28.93,SE,146,9.0,18.0,89,0.00,,,0.01,WeatherCatV1.24B11,2014-01-02 14:47:00,
2014-01-02 14:52:00,45.8,42.5,28.93,SSE,155,8.0,9.0,88,0.00,,,0.01,WeatherCatV1.24B11,2014-01-02 14:52:00,
2014-01-02 14:57:00,45.8,42.7,28.92,SSE,165,6.0,10.0,89,0.00,,,0.01,WeatherCatV1.24B11,2014-01-02 14:57:00,
2014-01-02 15:02:00,45.7,42.7,28.92,SE,136,10.0,10.0,89,0.00,,,0.01,WeatherCatV1.24B11,2014-01-02 15:02:00,
2014-01-02 15:07:00,45.7,42.7,28.91,SSE,150,5.0,10.0,89,0.00,,,0.01,WeatherCatV1.24B11,2014-01-02 15:07:00,
2014-01-02 15:12:00,45.8,42.7,28.91,SSE,161,7.0,8.0,89,0.00,,,0.01,WeatherCatV1.24B11,2014-01-02 15:12:00,
2014-01-02 15:17:00,45.8,42.7,28.90,SSE,158,11.0,11.0,89,0.00,,,0.01,WeatherCatV1.24B11,2014-01-02 15:17:00,
2014-01-02 15:22:00,45.9,42.8,28.90,SSE,157,10.0,15.0,89,0.00,,,0.01,WeatherCatV1.24B11,2014-01-02 15:22:00,
2014-01-02 15:27:00,45.9,42.5,28.89,SE,125,8.0,12.0,88,0.00,,,0.01,WeatherCatV1.24B11,2014-01-02 15:27:00,
2014-01-02 15:32:00,45.7,42.3,28.88,SSE,148,9.0,11.0,88,0.00,,,0.01,WeatherCatV1.24B11,2014-01-02 15:32:00,
2014-01-02 15:37:00,45.7,42.7,28.88,SSE,160,9.0,15.0,89,0.00,,,0.01,WeatherCatV1.24B11,2014-01-02 15:37:00,
2014-01-02 15:42:00,45.6,42.5,28.88,ENE,76,9.0,11.0,89,0.00,,,0.01,WeatherCatV1.24B11,2014-01-02 15:42:00,
2014-01-02 15:47:00,45.6,42.8,28.87,ESE,103,6.0,14.0,90,0.00,,,0.01,WeatherCatV1.24B11,2014-01-02 15:47:00,
2014-01-02 15:52:00,45.6,42.8,28.87,ESE,104,8.0,13.0,90,0.00,,,0.01,WeatherCatV1.24B11,2014-01-02 15:52:00,
2014-01-02 15:57:00,45.7,42.9,28.86,ESE,120,5.0,15.0,90,0.00,,,0.01,WeatherCatV1.24B11,2014-01-02 15:57:00,
2014-01-02 16:02:00,45.7,42.9,28.85,SE,139,11.0,15.0,90,0.00,,,0.01,WeatherCatV1.24B11,2014-01-02 16:02:00,
2014-01-02 16:07:00,45.8,43.0,28.85,SE,131,8.0,13.0,90,0.00,,,0.01,WeatherCatV1.24B11,2014-01-02 16:07:00,
2014-01-02 16:19:00,45.9,43.1,28.83,SE,134,11.0,11.0,90,0.00,,,0.01,WeatherCatV1.24B11,2014-01-02 16:19:00,
2014-01-02 16:24:00,45.9,43.1,28.83,South,188,15.0,17.0,90,0.00,,,0.01,WeatherCatV1.24B11,2014-01-02 16:24:00,
2014-01-02 16:29:00,46.0,42.9,28.83,SSE,159,8.0,16.0,89,0.00,,,0.01,WeatherCatV1.24B11,2014-01-02 16:29:00,
2014-01-02 16:34:00,46.1,43.3,28.83,SE,138,8.0,18.0,90,0.00,,,0.01,WeatherCatV1.24B11,2014-01-02 16:34:00,
2014-01-02 16:39:00,46.1,43.3,28.82,ESE,116,11.0,17.0,90,0.00,,,0.01,WeatherCatV1.24B11,2014-01-02 16:39:00,
2014-01-02 16:44:00,46.2,43.4,28.82,SE,139,17.0,23.0,90,0.00,,,0.01,WeatherCatV1.24B11,2014-01-02 16:44:00,
2014-01-02 16:49:00,46.3,43.5,28.81,SE,129,11.0,20.0,90,0.00,,,0.01,WeatherCatV1.24B11,2014-01-02 16:49:00,
2014-01-02 16:54:00,46.3,43.2,28.80,SE,146,10.0,19.0,89,0.00,,,0.01,WeatherCatV1.24B11,2014-01-02 16:54:00,
2014-01-02 16:59:00,46.3,43.2,28.79,SE,138,14.0,21.0,89,0.00,,,0.01,WeatherCatV1.24B11,2014-01-02 16:59:00,
2014-01-02 17:04:00,46.3,43.2,28.78,SSW,198,16.0,22.0,89,0.00,,,0.01,WeatherCatV1.24B11,2014-01-02 17:04:00,
2014-01-02 17:09:00,46.2,42.8,28.77,SE,138,14.0,24.0,88,0.00,,,0.01,WeatherCatV1.24B11,2014-01-02 17:09:00,
2014-01-02 17:14:00,46.0,42.7,28.77,SE,143,13.0,23.0,88,0.00,,,0.01,WeatherCatV1.24B11,2014-01-02 17:14:00,
2014-01-02 17:19:00,45.8,42.5,28.77,ESE,122,16.0,24.0,88,0.00,,,0.01,WeatherCatV1.24B11,2014-01-02 17:19:00,
2014-01-02 17:24:00,45.5,42.5,28.76,SE,138,16.0,19.0,89,0.00,,,0.01,WeatherCatV1.24B11,2014-01-02 17:24:00,
2014-01-02 17:29:00,45.0,42.2,28.75,SE,143,13.0,24.0,90,0.00,,,0.01,WeatherCatV1.24B11,2014-01-02 17:29:00,
2014-01-02 17:34:00,44.9,42.2,28.74,SSE,150,15.0,26.0,90,0.00,,,0.01,WeatherCatV1.24B11,2014-01-02 17:34:00,
2014-01-02 17:39:00,44.8,42.0,28.74,SSE,160,11.0,29.0,90,0.00,,,0.01,WeatherCatV1.24B11,2014-01-02 17:39:00,
2014-01-02 17:44:00,44.7,42.2,28.73,East,92,16.0,21.0,91,0.00,,,0.01,WeatherCatV1.24B11,2014-01-02 17:44:00,
2014-01-02 17:49:00,44.7,42.2,28.73,SE,140,12.0,24.0,91,0.00,,,0.01,WeatherCatV1.24B11,2014-01-02 17:49:00,
2014-01-02 17:54:00,44.7,42.2,28.72,ESE,121,14.0,17.0,91,0.00,,,0.01,WeatherCatV1.24B11,2014-01-02 17:54:00,
2014-01-02 17:59:00,44.7,42.2,28.72,SE,139,11.0,23.0,91,0.00,,,0.01,WeatherCatV1.24B11,2014-01-02 17:59:00,
2014-01-02 18:04:00,44.8,42.3,28.71,SE,132,12.0,18.0,91,0.00,,,0.01,WeatherCatV1.24B11,2014-01-02 18:04:00,
2014-01-02 18:09:00,44.8,42.3,28.71,SE,131,9.0,16.0,91,0.00,,,0.01,WeatherCatV1.24B11,2014-01-02 18:09:00,
2014-01-02 18:14:00,44.9,42.4,28.70,SE,124,14.0,20.0,91,0.00,,,0.01,WeatherCatV1.24B11,2014-01-02 18:14:00,
2014-01-02 18:19:00,45.0,42.5,28.70,SE,139,6.0,18.0,91,0.00,,,0.01,WeatherCatV1.24B11,2014-01-02 18:19:00,
2014-01-02 18:24:00,45.0,42.5,28.70,ESE,120,7.0,19.0,91,0.00,,,0.01,WeatherCatV1.24B11,2014-01-02 18:24:00,
2014-01-02 18:29:00,45.0,42.8,28.69,SE,136,10.0,20.0,92,0.00,,,0.01,WeatherCatV1.24B11,2014-01-02 18:29:00,
2014-01-02 18:34:00,44.9,42.7,28.69,ESE,112,8.0,16.0,92,0.00,,,0.01,WeatherCatV1.24B11,2014-01-02 18:34:00,
2014-01-02 18:39:00,44.8,42.9,28.68,SE,136,10.0,18.0,93,0.00,,,0.01,WeatherCatV1.24B11,2014-01-02 18:39:00,
2014-01-02 18:44:00,44.7,43.1,28.69,SE,143,12.0,19.0,94,0.00,,,0.01,WeatherCatV1.24B11,2014-01-02 18:44:00,
2014-01-02 18:49:00,44.7,43.1,28.68,SE,135,8.0,18.0,94,0.00,,,0.01,WeatherCatV1.24B11,2014-01-02 18:49:00,
2014-01-02 18:54:00,44.7,43.4,28.67,SE,128,13.0,18.0,95,0.00,,,0.01,WeatherCatV1.24B11,2014-01-02 18:54:00,
2014-01-02 18:59:00,44.8,43.5,28.67,SE,133,7.0,17.0,95,0.00,,,0.01,WeatherCatV1.24B11,2014-01-02 18:59:00,
2014-01-02 19:04:00,45.0,43.7,28.66,SSE,149,11.0,17.0,95,0.00,,,0.01,WeatherCatV1.24B11,2014-01-02 19:04:00,
2014-01-02 19:09:00,45.2,43.8,28.66,East,86,10.0,14.0,95,0.00,,,0.01,WeatherCatV1.24B11,2014-01-02 19:09:00,
2014-01-02 19:14:00,45.4,44.0,28.65,SE,133,7.0,15.0,95,0.00,,,0.01,WeatherCatV1.24B11,2014-01-02 19:14:00,
2014-01-02 19:19:00,45.7,44.6,28.65,SE,143,10.0,21.0,96,0.00,,,0.01,WeatherCatV1.24B11,2014-01-02 19:19:00,
2014-01-02 19:24:00,46.2,44.8,28.65,SSE,149,9.0,13.0,95,0.00,,,0.01,WeatherCatV1.24B11,2014-01-02 19:24:00,
2014-01-02 19:29:00,46.5,44.9,28.65,SSE,163,14.0,14.0,94,0.00,,,0.01,WeatherCatV1.24B11,2014-01-02 19:29:00,
2014-01-02 19:34:00,46.7,45.1,28.64,SSE,155,17.0,17.0,94,0.00,,,0.01,WeatherCatV1.24B11,2014-01-02 19:34:00,
2014-01-02 19:39:00,47.0,45.1,28.64,SSE,155,11.0,18.0,93,0.00,,,0.01,WeatherCatV1.24B11,2014-01-02 19:39:00,
2014-01-02 19:44:00,47.2,45.0,28.64,SSE,167,12.0,18.0,92,0.00,,,0.01,WeatherCatV1.24B11,2014-01-02 19:44:00,
2014-01-02 19:49:00,47.2,45.0,28.63,ESE,122,11.0,19.0,92,0.00,,,0.01,WeatherCatV1.24B11,2014-01-02 19:49:00,
2014-01-02 19:54:00,47.1,45.2,28.63,South,184,11.0,18.0,93,0.00,,,0.01,WeatherCatV1.24B11,2014-01-02 19:54:00,
2014-01-02 19:59:00,47.1,44.9,28.63,SSE,153,11.0,22.0,92,0.00,,,0.01,WeatherCatV1.24B11,2014-01-02 19:59:00,
2014-01-02 20:04:00,47.1,44.9,28.63,SSW,205,11.0,18.0,92,0.00,,,0.01,WeatherCatV1.24B11,2014-01-02 20:04:00,
2014-01-02 20:09:00,47.1,44.9,28.63,South,174,12.0,19.0,92,0.00,,,0.01,WeatherCatV1.24B11,2014-01-02 20:09:00,
2014-01-02 20:14:00,47.0,45.1,28.62,SSW,195,11.0,21.0,93,0.00,,,0.02,WeatherCatV1.24B11,2014-01-02 20:14:00,
2014-01-02 20:19:00,47.1,44.9,28.62,SE,143,17.0,20.0,92,0.00,,,0.02,WeatherCatV1.24B11,2014-01-02 20:19:00,
2014-01-02 20:24:00,47.2,44.7,28.62,SSE,165,13.0,20.0,91,0.00,,,0.02,WeatherCatV1.24B11,2014-01-02 20:24:00,
2014-01-02 20:29:00,46.8,44.6,28.63,SSW,201,21.0,38.0,92,0.00,,,0.02,WeatherCatV1.24B11,2014-01-02 20:29:00,
2014-01-02 20:34:00,46.5,42.5,28.62,SSE,153,18.0,25.0,86,0.00,,,0.02,WeatherCatV1.24B11,2014-01-02 20:34:00,
2014-01-02 20:39:00,46.3,43.2,28.62,SSW,204,22.0,22.0,89,0.00,,,0.02,WeatherCatV1.24B11,2014-01-02 20:39:00,
2014-01-02 20:44:00,46.3,42.9,28.61,SW,219,16.0,27.0,88,0.00,,,0.02,WeatherCatV1.24B11,2014-01-02 20:44:00,
2014-01-02 20:49:00,46.4,43.0,28.61,SSE,160,27.0,27.0,88,0.00,,,0.02,WeatherCatV1.24B11,2014-01-02 20:49:00,
2014-01-02 20:54:00,46.7,43.0,28.61,SW,231,23.0,23.0,87,0.00,,,0.02,WeatherCatV1.24B11,2014-01-02 20:54:00,
2014-01-02 20:59:00,46.5,43.1,28.61,South,181,13.0,19.0,88,0.00,,,0.02,WeatherCatV1.24B11,2014-01-02 20:59:00,
2014-01-02 21:04:00,46.3,43.2,28.61,SSE,149,11.0,16.0,89,0.00,,,0.02,WeatherCatV1.24B11,2014-01-02 21:04:00,
2014-01-02 21:09:00,46.2,42.8,28.61,South,186,13.0,19.0,88,0.00,,,0.02,WeatherCatV1.24B11,2014-01-02 21:09:00,
2014-01-02 21:14:00,46.2,42.8,28.61,SSW,197,10.0,18.0,88,0.00,,,0.02,WeatherCatV1.24B11,2014-01-02 21:14:00,
2014-01-02 21:19:00,46.2,42.8,28.61,SE,145,18.0,18.0,88,0.00,,,0.02,WeatherCatV1.24B11,2014-01-02 21:19:00,
2014-01-02 21:24:00,46.3,42.7,28.61,South,188,10.0,22.0,87,0.00,,,0.02,WeatherCatV1.24B11,2014-01-02 21:24:00,
2014-01-02 21:29:00,46.3,42.3,28.60,South,184,17.0,23.0,86,0.00,,,0.02,WeatherCatV1.24B11,2014-01-02 21:29:00,
2014-01-02 21:34:00,46.4,41.8,28.60,WSW,240,19.0,27.0,84,0.00,,,0.02,WeatherCatV1.24B11,2014-01-02 21:34:00,
2014-01-02 21:39:00,46.6,41.7,28.60,South,181,11.0,19.0,83,0.00,,,0.02,WeatherCatV1.24B11,2014-01-02 21:39:00,
2014-01-02 21:44:00,46.6,41.4,28.60,SSE,156,19.0,24.0,82,0.00,,,0.02,WeatherCatV1.24B11,2014-01-02 21:44:00,
2014-01-02 21:50:00,46.4,41.8,28.60,South,184,11.0,18.0,84,0.00,,,0.02,WeatherCatV1.24B11,2014-01-02 21:50:00,
2014-01-02 21:55:00,46.3,41.7,28.60,SSE,159,15.0,32.0,84,0.00,,,0.02,WeatherCatV1.24B11,2014-01-02 21:55:00,
2014-01-02 22:00:00,46.1,41.5,28.60,SE,129,25.0,28.0,84,0.00,,,0.02,WeatherCatV1.24B11,2014-01-02 22:00:00,
2014-01-02 22:05:00,46.3,40.8,28.60,SSW,194,18.0,26.0,81,0.00,,,0.02,WeatherCatV1.24B11,2014-01-02 22:05:00,
2014-01-02 22:10:00,46.5,41.0,28.59,SW,234,16.0,34.0,81,0.00,,,0.02,WeatherCatV1.24B11,2014-01-02 22:10:00,
2014-01-02 22:15:00,46.5,40.3,28.59,SSW,205,26.0,33.0,79,0.00,,,0.02,WeatherCatV1.24B11,2014-01-02 22:15:00,
2014-01-02 22:20:00,45.9,39.1,28.58,SSW,198,16.0,28.0,77,0.00,,,0.02,WeatherCatV1.24B11,2014-01-02 22:20:00,
2014-01-02 22:25:00,45.3,39.2,28.58,SSW,197,15.0,24.0,79,0.00,,,0.02,WeatherCatV1.24B11,2014-01-02 22:25:00,
2014-01-02 22:30:00,45.1,39.6,28.59,South,176,13.0,30.0,81,0.00,,,0.02,WeatherCatV1.24B11,2014-01-02 22:30:00,
2014-01-02 22:35:00,44.9,39.7,28.58,SSW,204,13.0,22.0,82,0.00,,,0.02,WeatherCatV1.24B11,2014-01-02 22:35:00,
2014-01-02 22:40:00,44.9,40.0,28.58,SSE,156,16.0,25.0,83,0.00,,,0.02,WeatherCatV1.24B11,2014-01-02 22:40:00,
2014-01-02 22:45:00,44.9,40.4,28.58,South,179,15.0,24.0,84,0.00,,,0.02,WeatherCatV1.24B11,2014-01-02 22:45:00,
2014-01-02 22:50:00,44.9,40.0,28.58,South,184,21.0,21.0,83,0.00,,,0.02,WeatherCatV1.24B11,2014-01-02 22:50:00,
2014-01-02 22:55:00,44.9,39.7,28.58,SSE,148,18.0,30.0,82,0.00,,,0.02,WeatherCatV1.24B11,2014-01-02 22:55:00,
2014-01-02 23:00:00,44.9,40.0,28.57,SSE,162,15.0,28.0,83,0.00,,,0.02,WeatherCatV1.24B11,2014-01-02 23:00:00,
2014-01-02 23:05:00,45.0,39.8,28.57,SW,218,25.0,25.0,82,0.00,,,0.02,WeatherCatV1.24B11,2014-01-02 23:05:00,
2014-01-02 23:10:00,45.1,40.2,28.57,SSW,199,16.0,34.0,83,0.00,,,0.02,WeatherCatV1.24B11,2014-01-02 23:10:00,
2014-01-02 23:15:00,45.2,40.0,28.58,SSW,204,16.0,29.0,82,0.00,,,0.02,WeatherCatV1.24B11,2014-01-02 23:15:00,
2014-01-02 23:20:00,45.1,39.3,28.57,SSW,197,29.0,46.0,80,0.00,,,0.02,WeatherCatV1.24B11,2014-01-02 23:20:00,
2014-01-02 23:25:00,44.1,38.3,28.56,SSW,203,22.0,32.0,80,0.00,,,0.02,WeatherCatV1.24B11,2014-01-02 23:25:00,
2014-01-02 23:30:00,44.3,38.2,28.55,South,176,18.0,33.0,79,0.00,,,0.02,WeatherCatV1.24B11,2014-01-02 23:30:00,
2014-01-02 23:35:00,44.9,38.1,28.55,SSE,155,17.0,30.0,77,0.00,,,0.02,WeatherCatV1.24B11,2014-01-02 23:35:00,
2014-01-02 23:40:00,44.8,38.4,28.56,SSE,150,15.0,33.0,78,0.00,,,0.02,WeatherCatV1.24B11,2014-01-02 23:40:00,
2014-01-02 23:45:00,44.6,38.5,28.55,SSE,155,22.0,29.0,79,0.00,,,0.02,WeatherCatV1.24B11,2014-01-02 23:45:00,
2014-01-02 23:50:00,44.5,39.0,28.55,South,190,17.0,28.0,81,0.00,,,0.02,WeatherCatV1.24B11,2014-01-02 23:50:00,
2014-01-02 23:55:00,44.4,39.2,28.55,South,187,15.0,26.0,82,0.00,,,0.02,WeatherCatV1.24B11,2014-01-02 23:55:00,